Time,TemperatureF,DewpointF,PressureIn,WindDirection,WindDirectionDegrees,WindSpeedMPH,WindSpeedGustMPH,Humidity,HourlyPrecipIn,Conditions,Clouds,dailyrainin,SoftwareType,DateUTC
2013-03-01 00:00:00,26.3,23.5,29.71,SW,236,0.0,1.0,89,0.00,,,0.00,VWS V14.00,2013-03-01 05:00:00,
2013-03-01 00:05:00,26.4,23.6,29.72,WSW,246,0.0,1.0,89,0.00,,,0.00,VWS V14.00,2013-03-01 05:05:00,
2013-03-01 00:06:00,26.4,23.6,29.72,WSW,246,0.0,0.0,89,0.00,,,0.00,VWS V14.00,2013-03-01 05:06:00,
2013-03-01 00:11:00,26.4,23.6,29.72,WSW,247,0.0,0.0,89,0.00,,,0.00,VWS V14.00,2013-03-01 05:11:00,
2013-03-01 00:16:00,26.3,23.5,29.72,WSW,249,0.0,1.0,89,0.00,,,0.00,VWS V14.00,2013-03-01 05:16:00,
2013-03-01 00:21:00,26.3,23.5,29.72,WSW,257,1.0,1.0,89,0.00,,,0.00,VWS V14.00,2013-03-01 05:21:00,
2013-03-01 00:26:00,26.2,23.7,29.72,WSW,256,0.0,1.0,90,0.00,,,0.00,VWS V14.00,2013-03-01 05:26:00,
2013-03-01 00:30:00,26.2,23.7,29.72,WSW,257,1.0,1.0,90,0.00,,,0.00,VWS V14.00,2013-03-01 05:30:00,
2013-03-01 00:31:00,26.2,23.7,29.72,WSW,256,0.0,1.0,90,0.00,,,0.00,VWS V14.00,2013-03-01 05:31:00,
2013-03-01 00:36:00,26.2,23.7,29.72,West,264,1.0,1.0,90,0.00,,,0.00,VWS V14.00,2013-03-01 05:36:00,
2013-03-01 00:41:00,26.2,23.7,29.72,SW,222,0.0,2.0,90,0.00,,,0.00,VWS V14.00,2013-03-01 05:41:00,
2013-03-01 00:46:00,26.2,23.7,29.72,SE,141,0.0,2.0,90,0.00,,,0.00,VWS V14.00,2013-03-01 05:46:00,
2013-03-01 00:51:00,26.2,23.9,29.72,SE,143,0.0,2.0,91,0.00,,,0.00,VWS V14.00,2013-03-01 05:51:00,
2013-03-01 00:56:00,26.1,23.8,29.72,WNW,287,0.0,2.0,91,0.00,,,0.00,VWS V14.00,2013-03-01 05:56:00,
2013-03-01 01:00:00,26.1,23.8,29.72,WNW,285,0.0,2.0,91,0.00,,,0.00,VWS V14.00,2013-03-01 06:00:00,
2013-03-01 01:01:00,26.1,23.8,29.72,WNW,285,0.0,2.0,91,0.00,,,0.00,VWS V14.00,2013-03-01 06:01:00,
2013-03-01 01:06:00,26.1,23.8,29.72,WNW,285,0.0,0.0,91,0.00,,,0.00,VWS V14.00,2013-03-01 06:06:00,
2013-03-01 01:11:00,26.2,23.9,29.72,WNW,285,0.0,1.0,91,0.00,,,0.00,VWS V14.00,2013-03-01 06:11:00,
2013-03-01 01:16:00,26.2,23.9,29.73,WNW,285,0.0,1.0,91,0.00,,,0.00,VWS V14.00,2013-03-01 06:16:00,
2013-03-01 01:21:00,26.2,23.9,29.72,WNW,285,0.0,1.0,91,0.00,,,0.00,VWS V14.00,2013-03-01 06:21:00,
2013-03-01 01:26:00,26.1,23.8,29.72,WNW,285,0.0,1.0,91,0.00,,,0.00,VWS V14.00,2013-03-01 06:26:00,
2013-03-01 01:30:00,26.1,24.1,29.72,SW,231,0.0,2.0,92,0.00,,,0.00,VWS V14.00,2013-03-01 06:30:00,
2013-03-01 01:31:00,26.1,23.8,29.72,WNW,285,0.0,1.0,91,0.00,,,0.00,VWS V14.00,2013-03-01 06:31:00,
2013-03-01 01:36:00,26.1,24.1,29.72,SW,232,2.0,2.0,92,0.00,,,0.00,VWS V14.00,2013-03-01 06:36:00,
2013-03-01 01:41:00,26.0,24.0,29.72,WNW,283,0.0,2.0,92,0.00,,,0.00,VWS V14.00,2013-03-01 06:41:00,
2013-03-01 01:46:00,26.0,24.0,29.72,North,357,0.0,2.0,92,0.00,,,0.00,VWS V14.00,2013-03-01 06:46:00,
2013-03-01 01:51:00,26.0,24.0,29.72,North,357,0.0,2.0,92,0.00,,,0.00,VWS V14.00,2013-03-01 06:51:00,
2013-03-01 01:56:00,26.0,24.0,29.72,West,273,1.0,2.0,92,0.00,,,0.00,VWS V14.00,2013-03-01 06:56:00,
2013-03-01 02:00:00,26.0,24.0,29.71,SW,230,0.0,2.0,92,0.00,,,0.00,VWS V14.00,2013-03-01 07:00:00,
2013-03-01 02:01:00,26.0,24.0,29.71,West,273,0.0,2.0,92,0.00,,,0.00,VWS V14.00,2013-03-01 07:01:00,
2013-03-01 02:06:00,26.0,24.0,29.71,SW,231,0.0,0.0,92,0.00,,,0.00,VWS V14.00,2013-03-01 07:06:00,
2013-03-01 02:11:00,26.0,24.0,29.71,East,82,0.0,1.0,92,0.00,,,0.00,VWS V14.00,2013-03-01 07:11:00,
2013-03-01 02:16:00,26.0,24.3,29.72,SW,217,0.0,1.0,93,0.00,,,0.00,VWS V14.00,2013-03-01 07:16:00,
2013-03-01 02:21:00,25.9,23.9,29.72,SW,219,0.0,1.0,92,0.00,,,0.00,VWS V14.00,2013-03-01 07:21:00,
2013-03-01 02:26:00,26.0,24.0,29.71,SW,219,0.0,1.0,92,0.00,,,0.00,VWS V14.00,2013-03-01 07:26:00,
2013-03-01 02:30:00,26.1,24.1,29.71,WNW,291,1.0,1.0,92,0.00,,,0.00,VWS V14.00,2013-03-01 07:30:00,
2013-03-01 02:31:00,26.2,24.5,29.71,ESE,120,0.0,1.0,93,0.00,,,0.00,VWS V14.00,2013-03-01 07:31:00,
2013-03-01 02:36:00,26.1,24.1,29.71,WNW,282,0.0,1.0,92,0.00,,,0.00,VWS V14.00,2013-03-01 07:36:00,
2013-03-01 02:41:00,26.1,24.1,29.71,West,278,0.0,1.0,92,0.00,,,0.00,VWS V14.00,2013-03-01 07:41:00,
2013-03-01 02:46:00,26.0,24.0,29.70,SW,224,0.0,1.0,92,0.00,,,0.00,VWS V14.00,2013-03-01 07:46:00,
2013-03-01 02:51:00,26.0,24.0,29.70,SW,225,0.0,1.0,92,0.00,,,0.00,VWS V14.00,2013-03-01 07:51:00,
2013-03-01 02:56:00,25.9,23.9,29.70,SW,225,0.0,1.0,92,0.00,,,0.00,VWS V14.00,2013-03-01 07:56:00,
2013-03-01 03:00:00,25.9,24.2,29.70,SW,219,0.0,1.0,93,0.00,,,0.00,VWS V14.00,2013-03-01 08:00:00,
2013-03-01 03:01:00,25.9,24.2,29.70,SW,219,0.0,1.0,93,0.00,,,0.00,VWS V14.00,2013-03-01 08:01:00,
2013-03-01 03:16:00,25.9,24.2,29.70,SSW,200,0.0,2.0,93,0.00,,,0.00,VWS V14.00,2013-03-01 08:16:00,
2013-03-01 03:21:00,26.0,24.3,29.69,SSW,200,0.0,2.0,93,0.00,,,0.00,VWS V14.00,2013-03-01 08:21:00,
2013-03-01 03:26:00,26.1,24.4,29.69,SSW,200,0.0,2.0,93,0.00,,,0.00,VWS V14.00,2013-03-01 08:26:00,
2013-03-01 03:30:00,25.9,24.4,29.72,ESE,105,0.0,0.0,94,0.00,,,0.00,VWS V14.00,2013-03-01 08:30:00,
2013-03-01 03:33:00,26.1,24.4,29.69,ESE,111,0.0,0.0,93,0.00,,,0.00,VWS V14.00,2013-03-01 08:33:00,
2013-03-01 03:38:00,26.0,24.3,29.69,South,177,0.0,0.0,93,0.00,,,0.00,VWS V14.00,2013-03-01 08:38:00,
2013-03-01 03:43:00,26.0,24.3,29.69,South,176,0.0,0.0,93,0.00,,,0.00,VWS V14.00,2013-03-01 08:43:00,
2013-03-01 03:48:00,25.9,24.2,29.69,SW,224,0.0,0.0,93,0.00,,,0.00,VWS V14.00,2013-03-01 08:48:00,
2013-03-01 03:53:00,25.9,24.2,29.69,SW,224,0.0,0.0,93,0.00,,,0.00,VWS V14.00,2013-03-01 08:53:00,
2013-03-01 03:58:00,25.9,24.2,29.69,SW,224,0.0,0.0,93,0.00,,,0.00,VWS V14.00,2013-03-01 08:58:00,
2013-03-01 04:00:00,25.9,24.4,29.73,SSE,148,0.0,1.0,94,0.00,,,0.00,VWS V14.00,2013-03-01 09:00:00,
2013-03-01 04:03:00,25.9,24.2,29.69,SW,224,0.0,0.0,93,0.00,,,0.00,VWS V14.00,2013-03-01 09:03:00,
2013-03-01 04:08:00,25.9,24.2,29.70,SW,224,0.0,0.0,93,0.00,,,0.00,VWS V14.00,2013-03-01 09:08:00,
2013-03-01 04:13:00,25.8,24.1,29.70,SSW,207,0.0,0.0,93,0.00,,,0.00,VWS V14.00,2013-03-01 09:13:00,
2013-03-01 04:19:00,25.8,24.1,29.70,SSW,207,0.0,0.0,93,0.00,,,0.00,VWS V14.00,2013-03-01 09:19:00,
2013-03-01 04:24:00,25.8,24.3,29.71,SSW,207,0.0,0.0,94,0.00,,,0.00,VWS V14.00,2013-03-01 09:24:00,
2013-03-01 04:29:00,25.9,24.4,29.71,SSW,207,0.0,0.0,94,0.00,,,0.00,VWS V14.00,2013-03-01 09:29:00,
2013-03-01 04:30:00,25.9,24.4,29.74,SE,137,0.0,0.0,94,0.00,,,0.00,VWS V14.00,2013-03-01 09:30:00,
2013-03-01 04:34:00,25.9,24.4,29.71,SSW,194,0.0,0.0,94,0.00,,,0.00,VWS V14.00,2013-03-01 09:34:00,
2013-03-01 04:39:00,25.9,24.4,29.71,ESE,105,0.0,0.0,94,0.00,,,0.00,VWS V14.00,2013-03-01 09:39:00,
2013-03-01 04:44:00,25.9,24.4,29.72,ESE,105,0.0,0.0,94,0.00,,,0.00,VWS V14.00,2013-03-01 09:44:00,
2013-03-01 04:49:00,25.9,24.4,29.72,SE,143,0.0,1.0,94,0.00,,,0.00,VWS V14.00,2013-03-01 09:49:00,
2013-03-01 04:54:00,25.9,24.4,29.72,SSE,148,0.0,1.0,94,0.00,,,0.00,VWS V14.00,2013-03-01 09:54:00,
2013-03-01 04:59:00,25.9,24.4,29.72,SSE,148,0.0,1.0,94,0.00,,,0.00,VWS V14.00,2013-03-01 09:59:00,
2013-03-01 05:00:00,26.1,24.6,29.74,SE,135,0.0,0.0,94,0.00,,,0.00,VWS V14.00,2013-03-01 10:00:00,
2013-03-01 05:04:00,25.9,24.4,29.73,SSE,148,0.0,1.0,94,0.00,,,0.00,VWS V14.00,2013-03-01 10:04:00,
2013-03-01 05:09:00,25.8,24.3,29.73,SSE,148,0.0,0.0,94,0.00,,,0.00,VWS V14.00,2013-03-01 10:09:00,
2013-03-01 05:14:00,25.9,24.4,29.74,SSE,148,0.0,0.0,94,0.00,,,0.00,VWS V14.00,2013-03-01 10:14:00,
2013-03-01 05:19:00,25.9,24.4,29.74,SSE,148,0.0,0.0,94,0.00,,,0.00,VWS V14.00,2013-03-01 10:19:00,
2013-03-01 05:24:00,25.9,24.4,29.74,SW,218,0.0,0.0,94,0.00,,,0.00,VWS V14.00,2013-03-01 10:24:00,
2013-03-01 05:29:00,25.9,24.4,29.74,SW,218,0.0,0.0,94,0.00,,,0.00,VWS V14.00,2013-03-01 10:29:00,
2013-03-01 05:30:00,26.1,24.6,29.73,East,89,0.0,0.0,94,0.00,,,0.00,VWS V14.00,2013-03-01 10:30:00,
2013-03-01 05:34:00,25.9,24.4,29.74,SE,137,0.0,0.0,94,0.00,,,0.00,VWS V14.00,2013-03-01 10:34:00,
2013-03-01 05:39:00,25.9,24.4,29.74,SE,137,0.0,0.0,94,0.00,,,0.00,VWS V14.00,2013-03-01 10:39:00,
2013-03-01 05:44:00,26.0,24.5,29.74,SE,135,0.0,0.0,94,0.00,,,0.00,VWS V14.00,2013-03-01 10:44:00,
2013-03-01 05:49:00,26.0,24.5,29.74,SE,136,0.0,0.0,94,0.00,,,0.00,VWS V14.00,2013-03-01 10:49:00,
2013-03-01 05:54:00,26.0,24.5,29.74,SE,135,0.0,0.0,94,0.00,,,0.00,VWS V14.00,2013-03-01 10:54:00,
2013-03-01 05:59:00,26.0,24.5,29.74,SE,137,0.0,0.0,94,0.00,,,0.00,VWS V14.00,2013-03-01 10:59:00,
2013-03-01 06:00:00,26.4,25.2,29.74,ESE,107,0.0,0.0,95,0.00,,,0.00,VWS V14.00,2013-03-01 11:00:00,
2013-03-01 06:04:00,26.1,24.6,29.74,SE,137,0.0,0.0,94,0.00,,,0.00,VWS V14.00,2013-03-01 11:04:00,
2013-03-01 06:09:00,26.1,24.6,29.74,SE,137,0.0,0.0,94,0.00,,,0.00,VWS V14.00,2013-03-01 11:09:00,
2013-03-01 06:14:00,26.1,24.6,29.74,SE,137,0.0,0.0,94,0.00,,,0.00,VWS V14.00,2013-03-01 11:14:00,
2013-03-01 06:19:00,26.1,24.6,29.73,SE,136,0.0,0.0,94,0.00,,,0.00,VWS V14.00,2013-03-01 11:19:00,
2013-03-01 06:24:00,26.1,24.6,29.73,SE,136,0.0,0.0,94,0.00,,,0.00,VWS V14.00,2013-03-01 11:24:00,
2013-03-01 06:29:00,26.1,24.6,29.73,SE,137,0.0,0.0,94,0.00,,,0.00,VWS V14.00,2013-03-01 11:29:00,
2013-03-01 06:30:00,26.4,25.2,29.74,East,80,0.0,0.0,95,0.00,,,0.00,VWS V14.00,2013-03-01 11:30:00,
2013-03-01 06:34:00,26.1,24.6,29.73,East,89,0.0,0.0,94,0.00,,,0.00,VWS V14.00,2013-03-01 11:34:00,
2013-03-01 06:39:00,26.1,24.6,29.73,East,89,0.0,0.0,94,0.00,,,0.00,VWS V14.00,2013-03-01 11:39:00,
2013-03-01 06:44:00,26.1,24.6,29.73,ESE,117,0.0,0.0,94,0.00,,,0.00,VWS V14.00,2013-03-01 11:44:00,
2013-03-01 06:49:00,26.1,24.6,29.73,ESE,117,0.0,0.0,94,0.00,,,0.00,VWS V14.00,2013-03-01 11:49:00,
2013-03-01 06:54:00,26.3,25.1,29.73,ESE,117,0.0,0.0,95,0.00,,,0.00,VWS V14.00,2013-03-01 11:54:00,
2013-03-01 06:59:00,26.5,25.3,29.73,ESE,117,0.0,0.0,95,0.00,,,0.00,VWS V14.00,2013-03-01 11:59:00,
2013-03-01 07:00:00,26.6,25.4,29.76,East,81,0.0,0.0,95,0.00,,,0.00,VWS V14.00,2013-03-01 12:00:00,
2013-03-01 07:04:00,26.4,25.2,29.74,ESE,107,0.0,0.0,95,0.00,,,0.00,VWS V14.00,2013-03-01 12:04:00,
2013-03-01 07:09:00,26.3,25.1,29.73,ESE,107,0.0,0.0,95,0.00,,,0.00,VWS V14.00,2013-03-01 12:09:00,
2013-03-01 07:14:00,26.3,25.1,29.73,East,81,0.0,0.0,95,0.00,,,0.00,VWS V14.00,2013-03-01 12:14:00,
2013-03-01 07:19:00,26.3,25.1,29.74,East,81,0.0,0.0,95,0.00,,,0.00,VWS V14.00,2013-03-01 12:19:00,
2013-03-01 07:24:00,26.4,25.2,29.74,East,81,0.0,0.0,95,0.00,,,0.00,VWS V14.00,2013-03-01 12:24:00,
2013-03-01 07:29:00,26.4,25.2,29.74,East,80,0.0,0.0,95,0.00,,,0.00,VWS V14.00,2013-03-01 12:29:00,
2013-03-01 07:30:00,27.1,25.9,29.77,East,80,0.0,0.0,95,0.00,,,0.00,VWS V14.00,2013-03-01 12:30:00,
2013-03-01 07:34:00,26.4,25.2,29.74,East,80,0.0,0.0,95,0.00,,,0.00,VWS V14.00,2013-03-01 12:34:00,
2013-03-01 07:39:00,26.5,25.3,29.74,East,80,0.0,0.0,95,0.00,,,0.00,VWS V14.00,2013-03-01 12:39:00,
2013-03-01 07:44:00,26.5,25.3,29.74,East,80,0.0,0.0,95,0.00,,,0.00,VWS V14.00,2013-03-01 12:44:00,
2013-03-01 07:50:00,26.5,25.3,29.75,East,81,0.0,0.0,95,0.00,,,0.00,VWS V14.00,2013-03-01 12:50:00,
2013-03-01 07:55:00,26.5,25.3,29.75,East,80,0.0,0.0,95,0.00,,,0.00,VWS V14.00,2013-03-01 12:55:00,
2013-03-01 08:00:00,26.4,25.2,29.75,East,81,0.0,0.0,95,0.00,,,0.00,VWS V14.00,2013-03-01 13:00:00,
2013-03-01 08:05:00,26.5,25.3,29.76,East,80,0.0,0.0,95,0.00,,,0.00,VWS V14.00,2013-03-01 13:05:00,
2013-03-01 08:10:00,26.6,25.4,29.76,East,80,0.0,0.0,95,0.00,,,0.00,VWS V14.00,2013-03-01 13:10:00,
2013-03-01 08:15:00,26.8,25.6,29.76,East,81,0.0,0.0,95,0.00,,,0.00,VWS V14.00,2013-03-01 13:15:00,
2013-03-01 08:20:00,26.8,25.6,29.76,East,81,0.0,0.0,95,0.00,,,0.00,VWS V14.00,2013-03-01 13:20:00,
2013-03-01 08:25:00,26.9,25.7,29.76,East,81,0.0,0.0,95,0.00,,,0.00,VWS V14.00,2013-03-01 13:25:00,
2013-03-01 08:30:00,27.0,25.8,29.76,East,80,0.0,0.0,95,0.00,,,0.00,VWS V14.00,2013-03-01 13:30:00,
2013-03-01 08:35:00,27.1,25.9,29.77,East,80,0.0,0.0,95,0.00,,,0.00,VWS V14.00,2013-03-01 13:35:00,
2013-03-01 08:40:00,27.2,26.0,29.77,East,80,0.0,0.0,95,0.00,,,0.00,VWS V14.00,2013-03-01 13:40:00,
2013-03-01 08:45:00,27.2,26.0,29.77,East,81,0.0,0.0,95,0.00,,,0.00,VWS V14.00,2013-03-01 13:45:00,
2013-03-01 08:50:00,27.3,26.1,29.77,East,81,0.0,0.0,95,0.00,,,0.00,VWS V14.00,2013-03-01 13:50:00,
2013-03-01 08:55:00,27.4,26.2,29.77,East,80,0.0,0.0,95,0.00,,,0.00,VWS V14.00,2013-03-01 13:55:00,
2013-03-01 09:00:00,27.3,25.8,29.77,East,81,0.0,0.0,94,0.00,,,0.00,VWS V14.00,2013-03-01 14:00:00,
2013-03-01 09:05:00,27.3,25.8,29.77,East,81,0.0,0.0,94,0.00,,,0.00,VWS V14.00,2013-03-01 14:05:00,
2013-03-01 09:10:00,27.3,25.8,29.77,East,82,0.0,0.0,94,0.00,,,0.00,VWS V14.00,2013-03-01 14:10:00,
2013-03-01 09:15:00,27.2,25.7,29.77,East,81,0.0,0.0,94,0.00,,,0.00,VWS V14.00,2013-03-01 14:15:00,
2013-03-01 09:20:00,27.2,25.7,29.77,East,80,0.0,0.0,94,0.00,,,0.00,VWS V14.00,2013-03-01 14:20:00,
2013-03-01 09:25:00,27.1,25.6,29.77,East,80,0.0,0.0,94,0.00,,,0.00,VWS V14.00,2013-03-01 14:25:00,
2013-03-01 09:30:00,27.4,25.9,29.77,East,80,0.0,0.0,94,0.00,,,0.00,VWS V14.00,2013-03-01 14:30:00,
2013-03-01 09:35:00,27.8,26.3,29.77,East,81,0.0,0.0,94,0.00,,,0.00,VWS V14.00,2013-03-01 14:35:00,
2013-03-01 09:40:00,27.8,26.3,29.78,East,81,0.0,0.0,94,0.00,,,0.00,VWS V14.00,2013-03-01 14:40:00,
2013-03-01 09:45:00,28.0,26.5,29.78,East,81,0.0,0.0,94,0.00,,,0.00,VWS V14.00,2013-03-01 14:45:00,
2013-03-01 09:50:00,28.2,26.7,29.78,ENE,72,0.0,0.0,94,0.00,,,0.00,VWS V14.00,2013-03-01 14:50:00,
2013-03-01 09:55:00,28.4,26.6,29.78,NNW,343,1.0,1.0,93,0.00,,,0.00,VWS V14.00,2013-03-01 14:55:00,
2013-03-01 10:00:00,28.5,26.7,29.78,NNW,343,0.0,1.0,93,0.00,,,0.00,VWS V14.00,2013-03-01 15:00:00,
2013-03-01 10:06:00,28.6,26.8,29.77,NNW,334,0.0,0.0,93,0.00,,,0.00,VWS V14.00,2013-03-01 15:06:00,
2013-03-01 10:11:00,28.5,26.5,29.77,NW,319,1.0,2.0,92,0.00,,,0.00,VWS V14.00,2013-03-01 15:11:00,
2013-03-01 10:16:00,28.4,26.4,29.77,NNW,332,1.0,3.0,92,0.00,,,0.00,VWS V14.00,2013-03-01 15:16:00,
2013-03-01 10:21:00,28.4,26.4,29.77,NNW,335,2.0,3.0,92,0.00,,,0.00,VWS V14.00,2013-03-01 15:21:00,
2013-03-01 10:26:00,28.3,26.3,29.77,North,354,1.0,3.0,92,0.00,,,0.00,VWS V14.00,2013-03-01 15:26:00,
2013-03-01 10:30:00,31.2,27.8,29.78,ENE,63,0.0,0.0,87,0.00,,,0.00,VWS V14.00,2013-03-01 15:30:00,
2013-03-01 10:31:00,28.6,26.8,29.77,NNW,347,1.0,3.0,93,0.00,,,0.00,VWS V14.00,2013-03-01 15:31:00,
2013-03-01 10:36:00,28.9,27.1,29.77,NE,39,0.0,0.0,93,0.00,,,0.00,VWS V14.00,2013-03-01 15:36:00,
2013-03-01 10:41:00,29.3,27.3,29.77,North,356,2.0,3.0,92,0.00,,,0.00,VWS V14.00,2013-03-01 15:41:00,
2013-03-01 10:46:00,29.6,27.6,29.77,North,11,1.0,3.0,92,0.00,,,0.00,VWS V14.00,2013-03-01 15:46:00,
2013-03-01 10:51:00,29.8,27.5,29.77,North,11,0.0,3.0,91,0.00,,,0.00,VWS V14.00,2013-03-01 15:51:00,
2013-03-01 10:56:00,29.9,27.3,29.78,North,11,0.0,3.0,90,0.00,,,0.00,VWS V14.00,2013-03-01 15:56:00,
2013-03-01 11:00:00,31.6,27.9,29.78,WNW,302,0.0,3.0,86,0.00,,,0.00,VWS V14.00,2013-03-01 16:00:00,
2013-03-01 11:01:00,30.0,27.2,29.78,South,186,0.0,3.0,89,0.00,,,0.00,VWS V14.00,2013-03-01 16:01:00,
2013-03-01 11:06:00,30.1,27.5,29.78,SW,218,0.0,0.0,90,0.00,,,0.00,VWS V14.00,2013-03-01 16:06:00,
2013-03-01 11:11:00,30.4,27.8,29.78,SW,217,0.0,0.0,90,0.00,,,0.00,VWS V14.00,2013-03-01 16:11:00,
2013-03-01 11:16:00,30.6,27.8,29.78,ESE,102,0.0,0.0,89,0.00,,,0.00,VWS V14.00,2013-03-01 16:16:00,
2013-03-01 11:21:00,30.8,27.7,29.78,East,101,0.0,0.0,88,0.00,,,0.00,VWS V14.00,2013-03-01 16:21:00,
2013-03-01 11:26:00,31.1,28.0,29.78,ENE,73,0.0,0.0,88,0.00,,,0.00,VWS V14.00,2013-03-01 16:26:00,
2013-03-01 11:30:00,32.1,27.8,29.77,West,270,0.0,3.0,84,0.00,,,0.00,VWS V14.00,2013-03-01 16:30:00,
2013-03-01 11:31:00,31.2,27.8,29.78,ENE,68,0.0,0.0,87,0.00,,,0.00,VWS V14.00,2013-03-01 16:31:00,
2013-03-01 11:36:00,31.2,27.8,29.78,ENE,62,0.0,0.0,87,0.00,,,0.00,VWS V14.00,2013-03-01 16:36:00,
2013-03-01 11:41:00,31.4,28.0,29.78,NNW,328,0.0,1.0,87,0.00,,,0.00,VWS V14.00,2013-03-01 16:41:00,
2013-03-01 11:46:00,31.4,28.0,29.78,East,94,0.0,2.0,87,0.00,,,0.00,VWS V14.00,2013-03-01 16:46:00,
2013-03-01 11:51:00,31.4,28.0,29.78,NE,40,0.0,2.0,87,0.00,,,0.00,VWS V14.00,2013-03-01 16:51:00,
2013-03-01 11:56:00,31.5,28.1,29.78,NW,317,3.0,3.0,87,0.00,,,0.00,VWS V14.00,2013-03-01 16:56:00,
2013-03-01 12:00:00,31.8,27.8,29.77,NW,304,0.0,4.0,85,0.00,,,0.00,VWS V14.00,2013-03-01 17:00:00,
2013-03-01 12:01:00,31.6,27.9,29.78,SW,226,0.0,3.0,86,0.00,,,0.00,VWS V14.00,2013-03-01 17:01:00,
2013-03-01 12:06:00,31.6,27.9,29.78,SSE,167,0.0,1.0,86,0.00,,,0.00,VWS V14.00,2013-03-01 17:06:00,
2013-03-01 12:11:00,31.9,28.2,29.78,SE,132,1.0,3.0,86,0.00,,,0.00,VWS V14.00,2013-03-01 17:11:00,
2013-03-01 12:16:00,32.0,28.0,29.77,NNW,345,0.0,3.0,85,0.00,,,0.00,VWS V14.00,2013-03-01 17:16:00,
2013-03-01 12:21:00,31.9,27.9,29.77,WSW,256,2.0,3.0,85,0.00,,,0.00,VWS V14.00,2013-03-01 17:21:00,
2013-03-01 12:26:00,31.8,27.8,29.77,SSW,208,1.0,3.0,85,0.00,,,0.00,VWS V14.00,2013-03-01 17:26:00,
2013-03-01 12:30:00,31.5,27.5,29.75,West,268,0.0,3.0,85,0.00,,,0.00,VWS V14.00,2013-03-01 17:30:00,
2013-03-01 12:31:00,32.0,28.0,29.77,WNW,297,0.0,3.0,85,0.00,,,0.00,VWS V14.00,2013-03-01 17:31:00,
2013-03-01 12:36:00,32.1,27.8,29.77,WNW,285,0.0,1.0,84,0.00,,,0.00,VWS V14.00,2013-03-01 17:36:00,
2013-03-01 12:41:00,32.2,28.2,29.77,West,279,0.0,3.0,85,0.00,,,0.00,VWS V14.00,2013-03-01 17:41:00,
2013-03-01 12:46:00,32.0,27.7,29.77,WSW,241,3.0,4.0,84,0.00,,,0.00,VWS V14.00,2013-03-01 17:46:00,
2013-03-01 12:51:00,31.6,27.6,29.77,WNW,293,1.0,4.0,85,0.00,,,0.00,VWS V14.00,2013-03-01 17:51:00,
2013-03-01 12:56:00,31.8,28.1,29.77,NW,316,2.0,4.0,86,0.00,,,0.00,VWS V14.00,2013-03-01 17:56:00,
2013-03-01 13:00:00,31.2,27.5,29.74,NW,309,0.0,2.0,86,0.00,,,0.00,VWS V14.00,2013-03-01 18:00:00,
2013-03-01 13:02:00,31.8,27.8,29.76,NNW,339,1.0,4.0,85,0.00,,,0.00,VWS V14.00,2013-03-01 18:02:00,
2013-03-01 13:07:00,31.8,27.8,29.76,NW,304,0.0,0.0,85,0.00,,,0.00,VWS V14.00,2013-03-01 18:07:00,
2013-03-01 13:12:00,32.0,28.0,29.76,NW,312,3.0,3.0,85,0.00,,,0.00,VWS V14.00,2013-03-01 18:12:00,
2013-03-01 13:17:00,31.7,27.7,29.76,NNE,14,0.0,3.0,85,0.00,,,0.00,VWS V14.00,2013-03-01 18:17:00,
2013-03-01 13:22:00,31.8,28.1,29.75,West,280,0.0,3.0,86,0.00,,,0.00,VWS V14.00,2013-03-01 18:22:00,
2013-03-01 13:27:00,31.8,27.8,29.75,WNW,284,0.0,3.0,85,0.00,,,0.00,VWS V14.00,2013-03-01 18:27:00,
2013-03-01 13:30:00,31.0,27.6,29.74,SW,224,0.0,6.0,87,0.00,,,0.00,VWS V14.00,2013-03-01 18:30:00,
2013-03-01 13:32:00,31.7,27.7,29.75,WNW,290,1.0,3.0,85,0.00,,,0.00,VWS V14.00,2013-03-01 18:32:00,
2013-03-01 13:37:00,31.4,27.4,29.75,SE,138,0.0,1.0,85,0.00,,,0.00,VWS V14.00,2013-03-01 18:37:00,
2013-03-01 13:42:00,31.5,27.8,29.75,West,271,0.0,2.0,86,0.00,,,0.00,VWS V14.00,2013-03-01 18:42:00,
2013-03-01 13:47:00,31.6,27.9,29.75,West,273,0.0,2.0,86,0.00,,,0.00,VWS V14.00,2013-03-01 18:47:00,
2013-03-01 13:52:00,31.6,27.9,29.75,West,273,0.0,2.0,86,0.00,,,0.00,VWS V14.00,2013-03-01 18:52:00,
2013-03-01 13:57:00,31.7,28.0,29.74,WNW,302,1.0,2.0,86,0.00,,,0.00,VWS V14.00,2013-03-01 18:57:00,
2013-03-01 14:00:00,30.5,27.4,29.74,WSW,237,0.0,2.0,88,0.00,,,0.00,VWS V14.00,2013-03-01 19:00:00,
2013-03-01 14:02:00,31.4,27.4,29.74,SW,228,0.0,2.0,85,0.00,,,0.00,VWS V14.00,2013-03-01 19:02:00,
2013-03-01 14:07:00,31.2,27.5,29.74,WSW,256,0.0,2.0,86,0.00,,,0.00,VWS V14.00,2013-03-01 19:07:00,
2013-03-01 14:12:00,31.1,27.7,29.75,South,181,0.0,2.0,87,0.00,,,0.00,VWS V14.00,2013-03-01 19:12:00,
2013-03-01 14:17:00,31.2,27.8,29.75,WNW,295,2.0,6.0,87,0.00,,,0.00,VWS V14.00,2013-03-01 19:17:00,
2013-03-01 14:22:00,30.9,27.5,29.74,WSW,246,0.0,6.0,87,0.00,,,0.00,VWS V14.00,2013-03-01 19:22:00,
2013-03-01 14:27:00,31.0,27.6,29.74,West,266,0.0,6.0,87,0.00,,,0.00,VWS V14.00,2013-03-01 19:27:00,
2013-03-01 14:30:00,30.0,27.2,29.75,SW,224,0.0,3.0,89,0.00,,,0.00,VWS V14.00,2013-03-01 19:30:00,
2013-03-01 14:32:00,31.0,27.6,29.74,SW,225,0.0,6.0,87,0.00,,,0.00,VWS V14.00,2013-03-01 19:32:00,
2013-03-01 14:37:00,31.0,27.6,29.74,SW,224,0.0,0.0,87,0.00,,,0.00,VWS V14.00,2013-03-01 19:37:00,
2013-03-01 14:42:00,31.1,27.7,29.74,West,273,2.0,2.0,87,0.00,,,0.00,VWS V14.00,2013-03-01 19:42:00,
2013-03-01 14:47:00,31.1,28.0,29.74,SW,221,0.0,2.0,88,0.00,,,0.00,VWS V14.00,2013-03-01 19:47:00,
2013-03-01 14:52:00,30.9,27.5,29.74,West,274,0.0,2.0,87,0.00,,,0.00,VWS V14.00,2013-03-01 19:52:00,
2013-03-01 14:57:00,30.6,27.2,29.74,SSW,198,0.0,2.0,87,0.00,,,0.00,VWS V14.00,2013-03-01 19:57:00,
2013-03-01 15:00:00,30.4,27.3,29.74,WNW,297,0.0,2.0,88,0.00,,,0.00,VWS V14.00,2013-03-01 20:00:00,
2013-03-01 15:03:00,30.5,27.4,29.74,SSW,204,0.0,2.0,88,0.00,,,0.00,VWS V14.00,2013-03-01 20:03:00,
2013-03-01 15:08:00,30.5,27.4,29.74,West,276,2.0,2.0,88,0.00,,,0.00,VWS V14.00,2013-03-01 20:08:00,
2013-03-01 15:13:00,30.3,27.2,29.74,SW,231,0.0,2.0,88,0.00,,,0.00,VWS V14.00,2013-03-01 20:13:00,
2013-03-01 15:18:00,30.2,27.1,29.74,WSW,239,0.0,2.0,88,0.00,,,0.00,VWS V14.00,2013-03-01 20:18:00,
2013-03-01 15:23:00,30.2,27.4,29.74,East,90,0.0,2.0,89,0.00,,,0.00,VWS V14.00,2013-03-01 20:23:00,
2013-03-01 15:28:00,30.1,27.3,29.74,WSW,257,1.0,2.0,89,0.00,,,0.00,VWS V14.00,2013-03-01 20:28:00,
2013-03-01 15:30:00,30.2,26.8,29.76,West,278,0.0,4.0,87,0.00,,,0.00,VWS V14.00,2013-03-01 20:30:00,
2013-03-01 15:33:00,30.0,27.2,29.74,WSW,243,1.0,3.0,89,0.00,,,0.00,VWS V14.00,2013-03-01 20:33:00,
2013-03-01 15:38:00,29.9,27.1,29.74,West,273,0.0,2.0,89,0.00,,,0.00,VWS V14.00,2013-03-01 20:38:00,
2013-03-01 15:43:00,30.0,27.2,29.74,WSW,252,0.0,2.0,89,0.00,,,0.00,VWS V14.00,2013-03-01 20:43:00,
2013-03-01 15:48:00,30.0,27.2,29.74,East,79,1.0,2.0,89,0.00,,,0.00,VWS V14.00,2013-03-01 20:48:00,
2013-03-01 15:53:00,30.1,27.3,29.74,WSW,243,0.0,2.0,89,0.00,,,0.00,VWS V14.00,2013-03-01 20:53:00,
2013-03-01 15:58:00,30.3,27.5,29.75,WSW,246,0.0,2.0,89,0.00,,,0.00,VWS V14.00,2013-03-01 20:58:00,
2013-03-01 16:00:00,30.2,26.8,29.77,NE,39,1.0,3.0,87,0.00,,,0.00,VWS V14.00,2013-03-01 21:00:00,
2013-03-01 16:03:00,30.4,27.5,29.74,WSW,243,0.0,2.0,89,0.00,,,0.00,VWS V14.00,2013-03-01 21:03:00,
2013-03-01 16:08:00,30.3,27.2,29.75,NNE,32,1.0,1.0,88,0.00,,,0.00,VWS V14.00,2013-03-01 21:08:00,
2013-03-01 16:13:00,30.3,27.2,29.75,NW,307,0.0,1.0,88,0.00,,,0.00,VWS V14.00,2013-03-01 21:13:00,
2013-03-01 16:18:00,30.4,27.3,29.75,NW,307,2.0,2.0,88,0.00,,,0.00,VWS V14.00,2013-03-01 21:18:00,
2013-03-01 16:23:00,30.3,27.2,29.75,West,262,2.0,3.0,88,0.00,,,0.00,VWS V14.00,2013-03-01 21:23:00,
2013-03-01 16:28:00,30.2,26.8,29.75,WNW,294,0.0,3.0,87,0.00,,,0.00,VWS V14.00,2013-03-01 21:28:00,
2013-03-01 16:30:00,29.7,26.6,29.78,West,277,2.0,5.0,88,0.00,,,0.00,VWS V14.00,2013-03-01 21:30:00,
2013-03-01 16:33:00,30.2,27.1,29.75,West,278,1.0,4.0,88,0.00,,,0.00,VWS V14.00,2013-03-01 21:33:00,
2013-03-01 16:38:00,30.2,26.8,29.76,ESE,111,1.0,2.0,87,0.00,,,0.00,VWS V14.00,2013-03-01 21:38:00,
2013-03-01 16:43:00,30.2,26.8,29.76,NNE,12,1.0,2.0,87,0.00,,,0.00,VWS V14.00,2013-03-01 21:43:00,
2013-03-01 16:48:00,30.2,26.8,29.77,SSW,204,0.0,3.0,87,0.00,,,0.00,VWS V14.00,2013-03-01 21:48:00,
2013-03-01 16:54:00,30.2,26.8,29.77,NW,326,0.0,3.0,87,0.00,,,0.00,VWS V14.00,2013-03-01 21:54:00,
2013-03-01 16:59:00,30.2,26.5,29.77,West,269,0.0,3.0,86,0.00,,,0.00,VWS V14.00,2013-03-01 21:59:00,
2013-03-01 17:00:00,29.5,26.7,29.79,East,97,0.0,4.0,89,0.00,,,0.00,VWS V14.00,2013-03-01 22:00:00,
2013-03-01 17:04:00,30.2,26.8,29.77,ENE,71,0.0,3.0,87,0.00,,,0.00,VWS V14.00,2013-03-01 22:04:00,
2013-03-01 17:09:00,30.2,26.8,29.77,NNW,332,0.0,1.0,87,0.00,,,0.00,VWS V14.00,2013-03-01 22:09:00,
2013-03-01 17:14:00,30.1,26.7,29.77,WSW,250,0.0,2.0,87,0.00,,,0.00,VWS V14.00,2013-03-01 22:14:00,
2013-03-01 17:19:00,30.0,26.6,29.77,SW,217,3.0,5.0,87,0.00,,,0.00,VWS V14.00,2013-03-01 22:19:00,
2013-03-01 17:24:00,29.9,26.5,29.77,WSW,252,1.0,5.0,87,0.00,,,0.00,VWS V14.00,2013-03-01 22:24:00,
2013-03-01 17:29:00,29.8,26.4,29.78,West,267,1.0,5.0,87,0.00,,,0.00,VWS V14.00,2013-03-01 22:29:00,
2013-03-01 17:30:00,29.0,26.2,29.80,SW,221,1.0,6.0,89,0.00,,,0.00,VWS V14.00,2013-03-01 22:30:00,
2013-03-01 17:34:00,29.7,26.3,29.78,SSW,207,2.0,5.0,87,0.00,,,0.00,VWS V14.00,2013-03-01 22:34:00,
2013-03-01 17:39:00,29.6,26.5,29.78,West,259,1.0,2.0,88,0.00,,,0.00,VWS V14.00,2013-03-01 22:39:00,
2013-03-01 17:44:00,29.6,26.5,29.78,West,277,0.0,2.0,88,0.00,,,0.00,VWS V14.00,2013-03-01 22:44:00,
2013-03-01 17:49:00,29.6,26.8,29.78,NW,309,0.0,4.0,89,0.00,,,0.00,VWS V14.00,2013-03-01 22:49:00,
2013-03-01 17:54:00,29.5,26.7,29.78,West,259,0.0,4.0,89,0.00,,,0.00,VWS V14.00,2013-03-01 22:54:00,
2013-03-01 17:59:00,29.5,26.7,29.78,WSW,243,0.0,4.0,89,0.00,,,0.00,VWS V14.00,2013-03-01 22:59:00,
2013-03-01 18:00:00,28.8,25.7,29.81,South,191,3.0,7.0,88,0.00,,,0.00,VWS V14.00,2013-03-01 23:00:00,
2013-03-01 18:04:00,29.5,26.7,29.79,SSW,212,0.0,4.0,89,0.00,,,0.00,VWS V14.00,2013-03-01 23:04:00,
2013-03-01 18:09:00,29.5,26.4,29.79,NW,307,0.0,1.0,88,0.00,,,0.00,VWS V14.00,2013-03-01 23:09:00,
2013-03-01 18:14:00,29.4,26.3,29.79,South,183,0.0,3.0,88,0.00,,,0.00,VWS V14.00,2013-03-01 23:14:00,
2013-03-01 18:19:00,29.3,26.5,29.79,SW,233,1.0,3.0,89,0.00,,,0.00,VWS V14.00,2013-03-01 23:19:00,
2013-03-01 18:24:00,29.3,26.5,29.79,WSW,257,1.0,3.0,89,0.00,,,0.00,VWS V14.00,2013-03-01 23:24:00,
2013-03-01 18:29:00,29.2,26.4,29.80,WSW,256,0.0,3.0,89,0.00,,,0.00,VWS V14.00,2013-03-01 23:29:00,
2013-03-01 18:30:00,28.9,25.8,29.83,WNW,288,0.0,7.0,88,0.00,,,0.00,VWS V14.00,2013-03-01 23:30:00,
2013-03-01 18:34:00,29.0,26.2,29.80,SSW,207,2.0,6.0,89,0.00,,,0.00,VWS V14.00,2013-03-01 23:34:00,
2013-03-01 18:39:00,29.0,26.2,29.80,WSW,248,1.0,2.0,89,0.00,,,0.00,VWS V14.00,2013-03-01 23:39:00,
2013-03-01 18:44:00,28.9,26.1,29.80,SSW,203,3.0,4.0,89,0.00,,,0.00,VWS V14.00,2013-03-01 23:44:00,
2013-03-01 18:49:00,28.9,26.1,29.80,SSW,209,1.0,4.0,89,0.00,,,0.00,VWS V14.00,2013-03-01 23:49:00,
2013-03-01 18:55:00,28.8,26.0,29.80,SSW,203,3.0,5.0,89,0.00,,,0.00,VWS V14.00,2013-03-01 23:55:00,
2013-03-01 19:00:00,28.8,26.0,29.81,SW,221,6.0,6.0,89,0.00,,,0.00,VWS V14.00,2013-03-02 00:00:00,
2013-03-01 19:05:00,28.8,25.7,29.81,SSW,212,4.0,7.0,88,0.00,,,0.00,VWS V14.00,2013-03-02 00:05:00,
2013-03-01 19:10:00,28.9,25.8,29.82,South,188,2.0,5.0,88,0.00,,,0.00,VWS V14.00,2013-03-02 00:10:00,
2013-03-01 19:15:00,29.0,25.6,29.81,SE,134,0.0,7.0,87,0.00,,,0.00,VWS V14.00,2013-03-02 00:15:00,
2013-03-01 19:20:00,29.0,25.4,29.82,North,356,0.0,7.0,86,0.00,,,0.00,VWS V14.00,2013-03-02 00:20:00,
2013-03-01 19:25:00,29.0,25.6,29.82,NNW,345,0.0,7.0,87,0.00,,,0.00,VWS V14.00,2013-03-02 00:25:00,
2013-03-01 19:30:00,29.0,25.9,29.83,NNW,347,0.0,7.0,88,0.00,,,0.00,VWS V14.00,2013-03-02 00:30:00,
2013-03-01 19:35:00,28.9,25.8,29.83,NNW,345,1.0,7.0,88,0.00,,,0.00,VWS V14.00,2013-03-02 00:35:00,
2013-03-01 19:40:00,28.8,26.0,29.82,WNW,290,0.0,1.0,89,0.00,,,0.00,VWS V14.00,2013-03-02 00:40:00,
2013-03-01 19:45:00,28.7,25.9,29.82,WNW,290,0.0,1.0,89,0.00,,,0.00,VWS V14.00,2013-03-02 00:45:00,
2013-03-01 19:50:00,28.6,26.0,29.83,WNW,290,0.0,1.0,90,0.00,,,0.00,VWS V14.00,2013-03-02 00:50:00,
2013-03-01 19:55:00,28.6,26.0,29.83,WNW,294,0.0,1.0,90,0.00,,,0.00,VWS V14.00,2013-03-02 00:55:00,
2013-03-01 20:00:00,28.5,26.0,29.83,WNW,292,0.0,1.0,90,0.00,,,0.00,VWS V14.00,2013-03-02 01:00:00,
2013-03-01 20:05:00,28.4,25.9,29.83,WNW,293,0.0,1.0,90,0.00,,,0.00,VWS V14.00,2013-03-02 01:05:00,
2013-03-01 20:10:00,28.3,25.8,29.83,WNW,295,0.0,0.0,90,0.00,,,0.00,VWS V14.00,2013-03-02 01:10:00,
2013-03-01 20:15:00,28.3,25.8,29.83,East,81,0.0,2.0,90,0.00,,,0.00,VWS V14.00,2013-03-02 01:15:00,
2013-03-01 20:20:00,28.3,26.0,29.83,SSE,148,0.0,2.0,91,0.00,,,0.00,VWS V14.00,2013-03-02 01:20:00,
2013-03-01 20:25:00,28.2,25.6,29.83,South,169,0.0,2.0,90,0.00,,,0.00,VWS V14.00,2013-03-02 01:25:00,
2013-03-01 20:30:00,28.2,25.9,29.83,South,169,0.0,2.0,91,0.00,,,0.00,VWS V14.00,2013-03-02 01:30:00,
2013-03-01 20:35:00,28.1,25.5,29.82,SSE,167,0.0,2.0,90,0.00,,,0.00,VWS V14.00,2013-03-02 01:35:00,
2013-03-01 20:40:00,28.1,25.5,29.82,SSW,204,0.0,1.0,90,0.00,,,0.00,VWS V14.00,2013-03-02 01:40:00,
2013-03-01 20:45:00,28.1,25.8,29.83,SE,141,2.0,2.0,91,0.00,,,0.00,VWS V14.00,2013-03-02 01:45:00,
2013-03-01 20:50:00,28.2,25.6,29.82,ESE,105,0.0,2.0,90,0.00,,,0.00,VWS V14.00,2013-03-02 01:50:00,
2013-03-01 20:55:00,28.3,25.8,29.82,ESE,107,0.0,2.0,90,0.00,,,0.00,VWS V14.00,2013-03-02 01:55:00,
2013-03-01 21:00:00,28.3,25.5,29.82,ESE,108,0.0,2.0,89,0.00,,,0.00,VWS V14.00,2013-03-02 02:00:00,
2013-03-01 21:05:00,28.4,25.6,29.83,ESE,107,0.0,2.0,89,0.00,,,0.00,VWS V14.00,2013-03-02 02:05:00,
2013-03-01 21:10:00,28.4,25.9,29.83,ESE,109,0.0,1.0,90,0.00,,,0.00,VWS V14.00,2013-03-02 02:10:00,
2013-03-01 21:15:00,28.4,25.9,29.83,ESE,108,0.0,1.0,90,0.00,,,0.00,VWS V14.00,2013-03-02 02:15:00,
2013-03-01 21:20:00,28.3,25.8,29.83,ESE,108,0.0,1.0,90,0.00,,,0.00,VWS V14.00,2013-03-02 02:20:00,
2013-03-01 21:25:00,28.2,25.6,29.83,ESE,110,0.0,1.0,90,0.00,,,0.00,VWS V14.00,2013-03-02 02:25:00,
2013-03-01 21:30:00,28.2,25.6,29.83,ESE,110,0.0,1.0,90,0.00,,,0.00,VWS V14.00,2013-03-02 02:30:00,
2013-03-01 21:35:00,28.2,25.9,29.83,ESE,110,0.0,0.0,91,0.00,,,0.00,VWS V14.00,2013-03-02 02:35:00,
2013-03-01 21:40:00,28.2,25.9,29.83,ESE,110,0.0,0.0,91,0.00,,,0.00,VWS V14.00,2013-03-02 02:40:00,
2013-03-01 21:45:00,28.2,25.9,29.83,ESE,110,0.0,0.0,91,0.00,,,0.00,VWS V14.00,2013-03-02 02:45:00,
2013-03-01 21:50:00,28.1,25.8,29.84,ESE,109,0.0,0.0,91,0.00,,,0.00,VWS V14.00,2013-03-02 02:50:00,
2013-03-01 21:55:00,28.1,25.8,29.83,ESE,110,0.0,0.0,91,0.00,,,0.00,VWS V14.00,2013-03-02 02:55:00,
2013-03-01 22:00:00,28.1,25.8,29.83,ESE,111,0.0,0.0,91,0.00,,,0.00,VWS V14.00,2013-03-02 03:00:00,
2013-03-01 22:05:00,28.1,25.8,29.83,ESE,111,0.0,0.0,91,0.00,,,0.00,VWS V14.00,2013-03-02 03:05:00,
2013-03-01 22:10:00,28.1,25.8,29.83,ESE,112,0.0,1.0,91,0.00,,,0.00,VWS V14.00,2013-03-02 03:10:00,
2013-03-01 22:15:00,28.1,25.8,29.83,SSW,212,0.0,1.0,91,0.00,,,0.00,VWS V14.00,2013-03-02 03:15:00,
2013-03-01 22:20:00,28.1,25.8,29.83,SSW,208,0.0,2.0,91,0.00,,,0.00,VWS V14.00,2013-03-02 03:20:00,
2013-03-01 22:26:00,28.1,25.8,29.83,SSW,210,0.0,2.0,91,0.00,,,0.00,VWS V14.00,2013-03-02 03:26:00,
2013-03-01 22:30:00,27.8,26.0,29.80,South,170,0.0,2.0,93,0.00,,,0.00,VWS V14.00,2013-03-02 03:30:00,
2013-03-01 22:31:00,28.1,25.8,29.83,SSW,208,0.0,2.0,91,0.00,,,0.00,VWS V14.00,2013-03-02 03:31:00,
2013-03-01 22:36:00,28.0,26.0,29.83,West,271,0.0,0.0,92,0.00,,,0.00,VWS V14.00,2013-03-02 03:36:00,
2013-03-01 22:41:00,28.0,26.0,29.82,West,271,0.0,0.0,92,0.00,,,0.00,VWS V14.00,2013-03-02 03:41:00,
2013-03-01 22:46:00,28.0,26.0,29.83,West,266,0.0,0.0,92,0.00,,,0.00,VWS V14.00,2013-03-02 03:46:00,
2013-03-01 22:51:00,27.9,25.9,29.82,West,264,0.0,0.0,92,0.00,,,0.00,VWS V14.00,2013-03-02 03:51:00,
2013-03-01 22:56:00,28.0,26.2,29.82,ESE,118,1.0,2.0,93,0.00,,,0.00,VWS V14.00,2013-03-02 03:56:00,
2013-03-01 23:00:00,27.8,26.3,29.80,SE,128,0.0,1.0,94,0.00,,,0.00,VWS V14.00,2013-03-02 04:00:00,
2013-03-01 23:01:00,28.0,26.2,29.81,ESE,113,0.0,2.0,93,0.00,,,0.00,VWS V14.00,2013-03-02 04:01:00,
2013-03-01 23:06:00,28.0,26.2,29.81,SE,146,0.0,0.0,93,0.00,,,0.00,VWS V14.00,2013-03-02 04:06:00,
2013-03-01 23:11:00,28.0,26.2,29.81,SE,132,0.0,0.0,93,0.00,,,0.00,VWS V14.00,2013-03-02 04:11:00,
2013-03-01 23:16:00,27.9,26.1,29.81,East,79,0.0,2.0,93,0.00,,,0.00,VWS V14.00,2013-03-02 04:16:00,
2013-03-01 23:21:00,27.9,26.1,29.80,East,79,0.0,2.0,93,0.00,,,0.00,VWS V14.00,2013-03-02 04:21:00,
2013-03-01 23:26:00,27.8,26.0,29.80,East,79,0.0,2.0,93,0.00,,,0.00,VWS V14.00,2013-03-02 04:26:00,
2013-03-01 23:30:00,27.6,26.1,29.78,WSW,238,2.0,4.0,94,0.00,,,0.00,VWS V14.00,2013-03-02 04:30:00,
2013-03-01 23:31:00,27.7,25.9,29.80,SW,219,0.0,2.0,93,0.00,,,0.00,VWS V14.00,2013-03-02 04:31:00,
2013-03-01 23:36:00,27.8,26.0,29.80,SSE,167,0.0,0.0,93,0.00,,,0.00,VWS V14.00,2013-03-02 04:36:00,
2013-03-01 23:41:00,27.9,26.4,29.80,South,169,0.0,0.0,94,0.00,,,0.00,VWS V14.00,2013-03-02 04:41:00,
2013-03-01 23:46:00,27.7,26.2,29.80,South,169,0.0,0.0,94,0.00,,,0.00,VWS V14.00,2013-03-02 04:46:00,
2013-03-01 23:51:00,27.7,26.2,29.80,SSE,167,0.0,0.0,94,0.00,,,0.00,VWS V14.00,2013-03-02 04:51:00,
2013-03-01 23:56:00,27.7,26.2,29.80,SE,129,0.0,1.0,94,0.00,,,0.00,VWS V14.00,2013-03-02 04:56:00,